Weather History for Perry, FL

Change the Weather History Date:

Thursday, June 20, 2013

  Actual Average (KCTY) Record (KCTY)
Temperature  
Mean Temperature 78 °F 80 °F  
Max Temperature 91 °F 91 °F 97 °F (1998)
Min Temperature 66 °F 70 °F 66 °F (2001)
Degree Days  
Heating Degree Days 0 0  
Month to date heating degree days 0  
Since 1 June heating degree days 0  
Since 1 July heating degree days 1306  
Cooling Degree Days 13 15  
Month to date cooling degree days 291  
Year to date cooling degree days 770  
Since 1 June cooling degree days 291  
Growing Degree Days 28 (Base 50)    
Moisture  
Dew Point 69 °F    
Average Humidity 84    
Maximum Humidity 100    
Minimum Humidity 50    
Precipitation  
Precipitation 0.99 in 0.20 in 2.08 in (2004)
Month to date precipitation 3.18  
Year to date precipitation 20.35  
Sea Level Pressure  
Sea Level Pressure 30.07 in    
Wind  
Wind Speed 2 mph (NE)    
Max Wind Speed 13 mph    
Max Gust Speed 22 mph    
Visibility 9 miles    
Events Rain , Thunderstorm    
T = Trace of Precipitation, MM = Missing Value Source: NWS Daily Summary

Daily Weather History Graph

Daily Weather History Graph

Search for Another Location

Airport:

Trip Planner

Search our weather history database for the weather conditions in past years. The results will help you decide how hot, cold, wet, or windy it might be!

Date:

Astronomy

Jun. 20, 2013 Rise Set
Actual Time 6:33 AM EDT 8:38 PM EDT
Civil Twilight 6:05 AM EDT 9:06 PM EDT
Nautical Twilight 5:32 AM EDT 9:39 PM EDT
Astronomical Twilight 4:56 AM EDT 10:15 PM EDT
Moon 5:46 PM EDT (6/20) 3:49 AM EDT (6/20)
Length of Visible Light 15h 00m
Length of Day
14h 05m
Waxing Gibbous, 89% of the Moon is Illuminated
Jun 20
Waxing Gibbous
Jun 23
Full
Jun 30
Last Quarter
Jul 8
New
Jul 15
First Quarter

Hourly Weather History & Observations

Time (EDT) Temp. Heat Index Dew Point Humidity Pressure Visibility Wind Dir Wind Speed Gust Speed Precip Events Conditions
12:15 AM 69.8 °F - 68.0 °F 94% 30.05 in 10.0 mi WNW 3.5 mph - N/A   Scattered Clouds
12:35 AM 69.8 °F - 68.0 °F 94% 30.05 in 7.0 mi SSW 4.6 mph - N/A   Clear
12:53 AM 71.1 °F - 68.0 °F 90% 30.03 in - South 3.5 mph - N/A   Unknown
12:55 AM 69.8 °F - 68.0 °F 94% 30.04 in 7.0 mi SSW 3.5 mph - 0.01 in   Clear
1:15 AM 69.8 °F - 68.0 °F 94% 30.04 in 10.0 mi SSE 3.5 mph - N/A   Clear
1:35 AM 69.8 °F - 68.0 °F 94% 30.04 in 10.0 mi Calm Calm - N/A   Clear
1:53 AM 71.1 °F - 68.0 °F 90% 30.02 in - North 3.5 mph - N/A   Unknown
1:55 AM 69.8 °F - 68.0 °F 94% 30.03 in 10.0 mi North 3.5 mph - N/A   Clear
2:15 AM 69.8 °F - 68.0 °F 94% 30.02 in 10.0 mi Calm Calm - N/A   Scattered Clouds
2:35 AM 68.0 °F - 68.0 °F 100% 30.02 in 10.0 mi NNE 3.5 mph - N/A   Clear
2:53 AM 70.0 °F - 66.9 °F 90% 30.01 in - Calm Calm - N/A   Unknown
2:55 AM 68.0 °F - 66.2 °F 94% 30.02 in 10.0 mi East 3.5 mph - N/A   Clear
3:15 AM 68.0 °F - 66.2 °F 94% 30.02 in 10.0 mi Calm Calm - N/A   Clear
3:35 AM 68.0 °F - 66.2 °F 94% 30.01 in 10.0 mi Calm Calm - N/A   Clear
3:53 AM 70.0 °F - 66.0 °F 87% 30.00 in - Calm Calm - N/A   Unknown
3:55 AM 68.0 °F - 66.2 °F 94% 30.01 in 10.0 mi Calm Calm - N/A   Clear
4:15 AM 68.0 °F - 64.4 °F 88% 30.01 in 10.0 mi Calm Calm - N/A   Clear
4:35 AM 68.0 °F - 64.4 °F 88% 30.01 in 10.0 mi Calm Calm - N/A   Clear
4:53 AM 69.1 °F - 66.0 °F 90% 30.00 in - Calm Calm - N/A   Unknown
4:55 AM 68.0 °F - 64.4 °F 88% 30.02 in 10.0 mi Calm Calm - N/A   Clear
5:15 AM 68.0 °F - 64.4 °F 88% 30.02 in 10.0 mi Calm Calm - N/A   Clear
5:35 AM 68.0 °F - 66.2 °F 94% 30.02 in 10.0 mi Calm Calm - N/A   Clear
5:53 AM 69.1 °F - 66.0 °F 90% 30.02 in - Calm Calm - N/A   Unknown
5:55 AM 68.0 °F - 66.2 °F 94% 30.03 in 10.0 mi Calm Calm - N/A   Clear
6:15 AM 68.0 °F - 66.2 °F 94% 30.04 in 7.0 mi Calm Calm - N/A   Clear
6:35 AM 66.2 °F - 64.4 °F 94% 30.05 in 7.0 mi North 4.6 mph - N/A   Clear
6:53 AM 69.1 °F - 66.0 °F 90% 30.04 in - Calm Calm - 0.01 in   Unknown
6:55 AM 68.0 °F - 64.4 °F 88% 30.05 in 7.0 mi Calm Calm - N/A   Clear
7:15 AM 68.0 °F - 66.2 °F 94% 30.06 in 10.0 mi NNE 3.5 mph - N/A   Scattered Clouds
7:35 AM 68.0 °F - 64.4 °F 88% 30.07 in 10.0 mi Calm Calm - N/A   Scattered Clouds
7:53 AM 70.0 °F - 66.0 °F 87% 30.06 in - Calm Calm - 0.01 in   Unknown
7:55 AM 68.0 °F - 66.2 °F 94% 30.08 in 10.0 mi Calm Calm - N/A   Clear
8:15 AM 68.0 °F - 66.2 °F 94% 30.08 in 10.0 mi Calm Calm - N/A   Clear
8:35 AM 69.8 °F - 68.0 °F 94% 30.09 in 10.0 mi Calm Calm - N/A   Clear
8:53 AM 73.9 °F - 68.0 °F 82% 30.08 in - North 3.5 mph - N/A   Unknown
8:55 AM 71.6 °F - 69.8 °F 94% 30.10 in 10.0 mi NNE 3.5 mph - N/A   Clear
9:15 AM 71.6 °F - 69.8 °F 94% 30.10 in 10.0 mi NNE 4.6 mph - N/A   Clear
9:35 AM 73.4 °F - 69.8 °F 88% 30.10 in 10.0 mi Calm Calm - N/A   Clear
9:53 AM 79.0 °F - 70.0 °F 74% 30.09 in - Calm Calm - N/A   Unknown
9:55 AM 75.2 °F - 69.8 °F 83% 30.10 in 10.0 mi Calm Calm - N/A   Mostly Cloudy
10:15 AM 77.0 °F - 69.8 °F 78% 30.10 in 10.0 mi Calm Calm - N/A   Mostly Cloudy
10:35 AM 78.8 °F - 69.8 °F 74% 30.11 in 10.0 mi Calm Calm - N/A   Mostly Cloudy
10:53 AM 82.0 °F 85.9 °F 70.0 °F 67% 30.09 in - ENE 3.5 mph - N/A   Unknown
10:55 AM 78.8 °F - 69.8 °F 74% 30.11 in 10.0 mi Calm Calm - N/A   Mostly Cloudy
11:15 AM 80.6 °F 83.9 °F 69.8 °F 70% 30.11 in 10.0 mi Calm Calm - N/A   Scattered Clouds
11:35 AM 80.6 °F 83.9 °F 69.8 °F 70% 30.11 in 10.0 mi Calm Calm - N/A   Clear
11:53 AM 86.0 °F 92.2 °F 72.0 °F 63% 30.09 in - Calm Calm - N/A   Unknown
11:55 AM 82.4 °F 86.3 °F 69.8 °F 66% 30.11 in 10.0 mi Calm Calm - N/A   Scattered Clouds
12:15 PM 82.4 °F 87.2 °F 71.6 °F 70% 30.10 in 10.0 mi East 4.6 mph - N/A   Scattered Clouds
12:35 PM 82.4 °F 87.2 °F 71.6 °F 70% 30.10 in 10.0 mi North 5.8 mph - N/A   Mostly Cloudy
12:53 PM 89.1 °F 96.0 °F 72.0 °F 57% 30.09 in - NNE 8.1 mph - N/A   Unknown
12:55 PM 86.0 °F 90.4 °F 69.8 °F 58% 30.10 in 10.0 mi NNE 5.8 mph - N/A   Scattered Clouds
1:15 PM 84.2 °F 88.4 °F 69.8 °F 62% 30.10 in 10.0 mi North 6.9 mph - N/A   Mostly Cloudy
1:35 PM 86.0 °F 90.4 °F 69.8 °F 58% 30.09 in 10.0 mi ENE 3.5 mph - N/A   Scattered Clouds
1:53 PM 89.1 °F 93.7 °F 69.1 °F 52% 30.07 in - North 5.8 mph - N/A   Unknown
1:55 PM 86.0 °F 89.4 °F 68.0 °F 55% 30.08 in 10.0 mi North 4.6 mph - N/A   Clear
2:15 PM 87.8 °F 91.4 °F 68.0 °F 52% 30.07 in 10.0 mi NNE 4.6 mph - N/A   Clear
2:35 PM 87.8 °F 91.4 °F 68.0 °F 52% 30.07 in 10.0 mi Calm Calm - N/A Thunderstorm Clear
2:53 PM 90.0 °F 94.5 °F 69.1 °F 50% 30.05 in - Calm Calm - N/A   Unknown
2:55 PM 87.8 °F 91.4 °F 68.0 °F 52% 30.06 in 10.0 mi Calm Calm - N/A   Scattered Clouds
3:15 PM 86.0 °F 90.4 °F 69.8 °F 58% 30.06 in 10.0 mi WSW 5.8 mph - N/A   Overcast
3:35 PM 84.2 °F 89.6 °F 71.6 °F 66% 30.06 in 10.0 mi SW 6.9 mph - N/A Thunderstorm Overcast
3:53 PM 87.1 °F 94.5 °F 73.0 °F 63% 30.05 in - SSW 6.9 mph - N/A   Unknown
3:55 PM 84.2 °F 89.6 °F 71.6 °F 66% 30.06 in 10.0 mi SW 6.9 mph - N/A Thunderstorm Overcast
4:15 PM 80.6 °F 84.6 °F 71.6 °F 74% 30.06 in 10.0 mi WNW 12.7 mph 21.9 mph N/A Rain , Thunderstorm Light Thunderstorms and Rain
4:35 PM 73.4 °F - 69.8 °F 88% 30.10 in 2.5 mi SW 5.8 mph 21.9 mph 0.22 in Rain , Thunderstorm Heavy Thunderstorms and Rain
4:53 PM 75.0 °F - 69.1 °F 82% 30.06 in - SSE 11.5 mph - 0.70 in   Unknown
4:55 PM 71.6 °F - 69.8 °F 94% 30.07 in 2.0 mi South 8.1 mph 12.7 mph 0.65 in Rain Heavy Rain
5:15 PM 71.6 °F - 69.8 °F 94% 30.07 in 7.0 mi East 6.9 mph - 0.02 in Rain , Thunderstorm Rain
5:35 PM 71.6 °F - 69.8 °F 94% 30.09 in 5.0 mi North 10.4 mph - 0.07 in Rain , Thunderstorm Heavy Thunderstorms and Rain
5:53 PM 73.9 °F - 70.0 °F 87% 30.06 in - ENE 4.6 mph - 0.24 in   Unknown
5:55 PM 71.6 °F - 69.8 °F 94% 30.07 in 5.0 mi NE 3.5 mph - 0.19 in Rain , Thunderstorm Rain
6:15 PM 73.4 °F - 69.8 °F 88% 30.06 in 10.0 mi Calm Calm - N/A Rain , Thunderstorm Light Thunderstorms and Rain
6:35 PM 73.4 °F - 71.6 °F 94% 30.06 in 10.0 mi ENE 3.5 mph - N/A   Scattered Clouds
6:53 PM 75.9 °F - 71.1 °F 85% 30.06 in - Calm Calm - N/A   Unknown
6:55 PM 73.4 °F - 71.6 °F 94% 30.07 in 10.0 mi Calm Calm - N/A Rain Light Rain
7:15 PM 73.4 °F - 69.8 °F 88% 30.07 in 10.0 mi East 4.6 mph - N/A   Clear
7:35 PM 73.4 °F - 69.8 °F 88% 30.07 in 10.0 mi North 3.5 mph - N/A   Clear
7:53 PM 75.0 °F - 71.1 °F 87% 30.06 in - SE 3.5 mph - 0.01 in   Unknown
7:55 PM 73.4 °F - 69.8 °F 88% 30.08 in 10.0 mi SE 3.5 mph - N/A   Clear
8:15 PM 73.4 °F - 69.8 °F 88% 30.08 in 10.0 mi SW 3.5 mph - N/A   Clear
8:35 PM 73.4 °F - 69.8 °F 88% 30.10 in 10.0 mi Calm Calm - N/A   Clear
8:53 PM 75.0 °F - 71.1 °F 87% 30.09 in - Calm Calm - 0.01 in   Unknown
8:55 PM 73.4 °F - 71.6 °F 94% 30.10 in 10.0 mi Calm Calm - N/A   Mostly Cloudy
9:15 PM 73.4 °F - 71.6 °F 94% 30.10 in 7.0 mi Calm Calm - N/A   Overcast
9:35 PM 73.4 °F - 71.6 °F 94% 30.09 in 7.0 mi Calm Calm - N/A   Mostly Cloudy
9:53 PM 73.9 °F - 71.1 °F 91% 30.08 in - Calm Calm - N/A   Unknown
9:55 PM 71.6 °F - 69.8 °F 94% 30.10 in 5.0 mi Calm Calm - N/A   Scattered Clouds
10:15 PM 71.6 °F - 69.8 °F 94% 30.10 in 7.0 mi Calm Calm - N/A   Mostly Cloudy
10:35 PM 71.6 °F - 69.8 °F 94% 30.11 in 10.0 mi NNE 4.6 mph - N/A   Scattered Clouds
10:53 PM 73.0 °F - 69.1 °F 87% 30.10 in - NNE 3.5 mph - N/A   Unknown
10:55 PM 71.6 °F - 69.8 °F 94% 30.11 in 10.0 mi NE 3.5 mph - N/A   Clear
11:15 PM 71.6 °F - 69.8 °F 94% 30.12 in 10.0 mi Calm Calm - N/A   Clear
11:35 PM 71.6 °F - 69.8 °F 94% 30.12 in 10.0 mi Calm Calm - N/A   Clear
11:53 PM 73.0 °F - 69.1 °F 87% 30.10 in - Calm Calm - N/A   Unknown
11:55 PM 71.6 °F - 69.8 °F 94% 30.11 in 10.0 mi Calm Calm - N/A   Clear